Terminal Aerodrome Forecast
Issued by NWS Portland, OR

Home | Current Version | Previous Version | Text Only | Print | Product List | Glossary On
Versions: 1 2 3 4 5 6 7 8 9 10 11 12 13 14 15 16 17 18 19 20 21 22 23 24 25 26 27 28 29 30 31 32 33 34 35 36 37 38 39 40 41 42 43 44 45 46 47 48 49 50
000
FTUS46 KPQR 192334
TAFAST
TAF
KAST 192334Z 2000/2024 34015G22KT P6SM FEW250
     FM200300 32010G20KT P6SM BKN020
     FM200700 32009KT P6SM SCT004 BKN015
     FM201000 32006KT P6SM OVC009
     FM201400 34004KT 2SM BR OVC003=

USA.gov is the U.S. government's official web portal to all federal, state and local government web resources and services.